Regional Weather Roundup
Issued by NWS Cleveland, OH

Home | Current Version | Previous Version | Graphics & Text | Print | Product List | Glossary On
Versions: 1 2 3 4 5 6 7 8 9 10 11 12 13 14 15 16 17 18 19 20 21 22 23 24 25 26 27 28 29 30 31 32 33 34 35 36 37 38 39 40 41 42 43 44 45 46 47 48 49 50
000
ASUS41 KCLE 011402
RWRCLE
OHIO REGIONAL WEATHER ROUNDUP
NATIONAL WEATHER SERVICE CLEVELAND, OH
1000 AM EDT TUE SEP 01 2015

NOTE: "FAIR" INDICATES FEW OR NO CLOUDS BELOW 12,000 FEET WITH NO
SIGNIFICANT WEATHER AND/OR OBSTRUCTIONS TO VISIBILITY.

OHZ001>008-015>018-024>027-034-035-043-044-011500-
   NORTHWEST OHIO

CITY           SKY/WX    TMP DP  RH WIND       PRES   REMARKS
DEFIANCE       SUNNY     77  70  79 SW6       30.12S
FINDLAY        SUNNY     77  70  79 W6        30.12S
TOLEDO EXPRESS SUNNY     76  70  82 SW6       30.11S
TOLEDO EXEC    SUNNY     76  69  79 SW6       30.12S
LIMA           SUNNY     76  69  79 W3        30.14F
$$

OHZ009>014-019>023-028>033-038-089-011500-
   NORTHEAST OHIO

CITY           SKY/WX    TMP DP  RH WIND       PRES   REMARKS
CLE-HOPKINS    MOSUNNY   76  69  79 S5        30.15R
CLE-LAKEFRONT  SUNNY     78  69  73 NW3       30.11S
CUY CO. ARPT   SUNNY     81  72  74 NW6       30.13S
LORAIN-ELYRIA  SUNNY     76  69  79 VRB3      30.13S
ASHTABULA      SUNNY     74  69  85 S3        30.14R
AKRON-CANTON   SUNNY     79  68  69 VRB3      30.15S HAZE
WOOSTER        SUNNY     76  69  79 W3        30.16R
MANSFIELD      SUNNY     76  69  79 W5        30.16S
YOUNGSTOWN     MOSUNNY   76  68  76 SW3       30.15R
$$

OHZ042-051>053-060>062-070>072-077>081-011500-
  SOUTHWEST OHIO

CITY           SKY/WX    TMP DP  RH WIND       PRES   REMARKS
CINC-COVINGTON MOSUNNY   79  67  66 CALM      30.16S
CINC-LUNKEN    SUNNY     75  70  84 CALM      30.15F
HAMILTON       SUNNY     77  70  79 CALM      30.16F
DAYTON         MOSUNNY   78  70  76 SW3       30.17S
WRIGHT-PAT AFB NOT AVBL
DAYTON GENERAL SUNNY     77  68  73 W3        30.16S
WILMINGTON     SUNNY     78  68  71 W3        30.16F
$$

OHZ036-037-039>041-045>050-054>059-063>069-073>076-082>088-011500-
  CENTRAL AND SOUTHEAST OHIO

CITY           SKY/WX    TMP DP  RH WIND       PRES   REMARKS
COLUMBUS       MOSUNNY   76  68  76 CALM      30.15S
OSU AIRPORT    MOSUNNY   78  69  73 CALM      30.15S
BOLTON FIELD   SUNNY     75  70  83 CALM      30.16S
RICKENBACK AFB SUNNY     73  67  83 CALM      30.15S
NEWARK         SUNNY     77  69  76 CALM      30.15S
MARION         SUNNY     76  68  76 NW5       30.15S HAZE
LANCASTER      SUNNY     78  69  73 CALM      30.16S
ZANESVILLE     SUNNY     77  67  71 CALM      30.16S HAZE
NEW PHILLY     SUNNY     74  69  85 CALM      30.15F
$$


USA.gov is the U.S. government's official web portal to all federal, state and local government web resources and services.